This demonstration page uses our WeatherBlox Daily Observations layout. Learn more.

Hourly Observations for December 24, 2019

Temp ( °F °C ) Dew Point ( °F °C ) Humidity (%) Winds ( mph kmh ) Pressure ( in mb ) Visibility ( mi km ) Precip ( " mm )
12:54 am 00:54 Clear 30 -1.1 26 -3.3 85 85 Calm 29.89 1012 10 16.0934 0 0
1:54 am 01:54 Clear 31 -0.6 26 -3.3 82 82 Calm 29.89 1012 10 16.0934 0 0
2:54 am 02:54 Clear 29 -1.7 25 -3.9 85 85 Calm 29.88 1012 10 16.0934 0 0
3:54 am 03:54 Clear 30 -1.1 26 -3.3 85 85 Calm 29.88 1012 10 16.0934 0 0
4:54 am 04:54 Clear 30 -1.1 26 -3.3 85 85 N 3 6 29.86 1011 10 16.0934 0 0
5:54 am 05:54 Clear 29 -1.7 25 -3.9 85 85 NE 3 6 29.87 1012 10 16.0934 0 0
6:54 am 06:54 Clear 30 -1.1 25 -3.9 82 82 Calm 29.88 1012 10 16.0934 0 0
7:54 am 07:54 Sunny 29 -1.7 25 -3.9 85 85 SSE 3 6 29.87 1011 10 16.0934 0 0
8:54 am 08:54 Sunny 32 0 27 -2.8 82 82 Calm 29.88 1012 10 16.0934 0 0
9:54 am 09:54 Sunny 38 3.3 32 0 79 79 Calm 29.88 1012 10 16.0934 0 0
10:54 am 10:54 Sunny 43 6.1 34 1.1 71 71 Calm 29.87 1012 10 16.0934 0 0
11:54 am 11:54 Sunny 49 9.4 33 0.6 55 55 SSW 9 15 29.84 1011 10 16.0934 0 0
12:54 pm 12:54 Sunny 50 10 32 0 50 50 SSW 7 11 29.81 1010 10 16.0934 0 0
1:54 pm 13:54 Sunny 51 10.6 32 0 48 48 S 3 6 29.79 1009 10 16.0934 0 0
2:54 pm 14:54 Sunny 53 11.7 32 0 45 45 SE 5 7 29.75 1008 10 16.0934 0 0
3:54 pm 15:54 Sunny 51 10.6 33 0.6 50 50 Calm 29.76 1008 10 16.0934 0 0
4:54 pm 16:54 Sunny 42 5.6 31 -0.6 65 65 NNE 7 11 29.76 1008 10 16.0934 0 0
5:54 pm 17:54 Clear 43 6.1 32 0 65 65 N 3 6 29.77 1008 10 16.0934 0 0
6:54 pm 18:54 Clear 38 3.3 30 -1.1 73 73 NNW 5 7 29.79 1009 10 16.0934 0 0
7:54 pm 19:54 Clear 35 1.7 29 -1.7 78 78 NNW 7 11 29.78 1008 10 16.0934 0 0
8:54 pm 20:54 Clear 36 2.2 30 -1.1 79 79 NNW 6 9 29.75 1007 10 16.0934 0 0
9:54 pm 21:54 Clear 35 1.7 29 -1.7 78 78 NW 3 6 29.73 1007 10 16.0934 0 0
10:54 pm 22:54 Clear 36 2.2 31 -0.6 82 82 NW 3 6 29.73 1007 10 16.0934 0 0
11:54 pm 23:54 Clear 36 2.2 30 -1.1 79 79 Calm 29.7 1006 10 16.0934 0 0

Powered by AerisWeather